Meknes, Morocco

10:39 AM WET on May 26, 2018 (GMT +0000)
Meknes

Weather History for GMFM - November, 2011

Change the Weather History Date:

Saturday, November 19, 2011

  Actual Average (GMFF) Record (GMFF)
Temperature  
Mean Temperature 56 °F -  
Max Temperature 61 °F 63 °F 82 °F (2007)
Min Temperature 51 °F 44 °F 37 °F (2000)
Degree Days  
Heating Degree Days 9    
Growing Degree Days 6 (Base 50)    
Moisture  
Dew Point 49 °F    
Average Humidity 77    
Maximum Humidity 94    
Minimum Humidity 58    
Precipitation  
Precipitation 0.08 in 0.11 in - ()
Sea Level Pressure  
Sea Level Pressure 29.90 in    
Wind  
Wind Speed 4 mph ()    
Max Wind Speed 12 mph    
Max Gust Speed -    
Visibility 4.5 miles    
Events Rain    
Averages and records for this station are not official NWS values.
T = Trace of Precipitation, MM = Missing Value Source: Averaged Metar Reports

Daily Weather History Graph

Daily Weather History Graph

Search for Another Location

Airport or City:

Astronomy

Nov. 19, 2011 Rise Set
Actual Time 6:57 AM WET 5:16 PM WET
Civil Twilight 6:30 AM WET 5:43 PM WET
Nautical Twilight 6:00 AM WET 6:13 PM WET
Astronomical Twilight 5:30 AM WET 6:43 PM WET
Moon 12:20 AM WET (11/19) 1:11 PM WET (11/19)
Length of Visible Light 11h 12m
Length of Day
10h 19m
Last Quarter, 40% of the Moon is Illuminated
Nov 19
Last Quarter
Nov 25
New
Dec 2
First Quarter
Dec 10
Full
Dec 18
Last Quarter

Hourly Weather History & Observations

Time (WET) Temp. Dew Point Humidity Pressure Visibility Wind Dir Wind Speed Gust Speed Precip Events Conditions
12:00 AM 59.0 °F 46.4 °F 63% 29.95 in - South 9.2 mph - N/A   Clear
1:00 AM 57.2 °F 46.4 °F 67% 29.95 in - WNW 2.3 mph - N/A   Clear
2:00 AM 55.4 °F 46.4 °F 72% 29.95 in - South 3.5 mph - N/A   Clear
3:00 AM 57 °F 46 °F 58% 29.92 in 6 mi South 3.5 mph - -   Scattered Clouds
3:00 AM 57.2 °F 46.4 °F 67% 29.95 in - South 2.3 mph - N/A   Clear
5:00 AM 55.4 °F 46.4 °F 72% 29.92 in - Calm Calm - N/A   Clear
6:00 AM 55 °F 47 °F 66% 29.91 in 6 mi Calm Calm - -   Partly Cloudy
6:00 AM 55.4 °F 46.4 °F 72% 29.92 in - Calm Calm - N/A   Clear
7:00 AM 51.8 °F 46.4 °F 82% 29.92 in - SE 3.5 mph - N/A   Clear
8:00 AM 55.4 °F 50.0 °F 82% 29.95 in 5.0 mi SSE 2.3 mph - N/A   Scattered Clouds
9:00 AM - - %  in 5 mi SE 4.6 mph - -   Mostly Cloudy
9:00 AM 55.4 °F 50.0 °F 82% 29.95 in 5.0 mi SE 4.6 mph - N/A   Scattered Clouds
10:00 AM 60.8 °F 48.2 °F 63% 29.95 in 5.0 mi SSW 10.4 mph - N/A Rain Rain
11:00 AM 59.0 °F 50.0 °F 72% 29.95 in 5.0 mi WSW 6.9 mph - N/A Rain Rain
12:00 PM 57 °F 51 °F 75% 29.90 in 4 mi West 4.6 mph - -   Overcast
12:00 PM 57.2 °F 51.8 °F 82% 29.92 in 3.7 mi West 4.6 mph - N/A   Scattered Clouds
1:00 PM 60.8 °F 51.8 °F 72% 29.89 in 3.7 mi WSW 5.8 mph - N/A   Scattered Clouds
2:00 PM 60.8 °F 50.0 °F 68% 29.89 in 5.0 mi West 9.2 mph - N/A   Mostly Cloudy
3:00 PM 53 °F 50 °F 87% 29.89 in 3 mi WSW 11.5 mph - - Rain Light Rain
3:00 PM 53.6 °F 50.0 °F 88% 29.89 in 3.1 mi WSW 11.5 mph - N/A Rain Rain
4:00 PM 53.6 °F 50.0 °F 88% 29.86 in 3.7 mi South 5.8 mph - N/A Rain Rain
5:00 PM 57.2 °F 50.0 °F 77% 29.86 in 5.0 mi South 4.6 mph - N/A   Mostly Cloudy
6:00 PM 55 °F 50 °F 76% 29.84 in 5 mi Calm Calm - -   Mostly Cloudy
6:00 PM 55.4 °F 50.0 °F 82% 29.86 in 5.0 mi Calm Calm - N/A   Mostly Cloudy
7:00 PM 55.4 °F 50.0 °F 82% 29.83 in 5.0 mi SE 3.5 mph - N/A   Mostly Cloudy
8:00 PM 53.6 °F 50.0 °F 88% 29.83 in 5.0 mi East 3.5 mph - N/A   Mostly Cloudy
9:00 PM 55.4 °F 51.8 °F 88% 29.86 in 3.7 mi ENE 2.3 mph - N/A   Mostly Cloudy
10:00 PM 53.6 °F 50.0 °F 88% 29.86 in 3.1 mi East 3.5 mph - N/A Rain Light Rain
11:00 PM 53.6 °F 51.8 °F 94% 29.83 in 3.1 mi ESE 4.6 mph - N/A Rain Light Rain